CAPE
0 0 0 0 0 0 0 0 0 0 0 0 0 0 0 0 0 0 0 0 0 0 0 0 0 0 0 0 0 0 0 0 0 0 14 446 423 218 47 85 235 214 114 174 351
0 0 0 0 0 0 0 0 0 0 0 0 0 0 0 0 0 0 0 0 0 0 0 0 0 0 0 0 0 0 0 0 0 16 85 441 531 290 94 55 201 192 129 268 237
0 0 0 0 0 0 0 0 0 0 0 0 0 0 0 0 0 0 0 0 0 0 0 0 0 0 0 0 0 0 0 0 0 31 223 348 551 310 211 83 131 131 220 274 221
1 1 0 0 0 0 0 0 0 0 0 0 0 0 0 0 0 0 0 0 0 0 0 0 0 0 0 0 0 0 0 0 4 120 227 280 396 342 231 223 171 274 356 326 251
0 0 0 0 0 0 0 0 0 0 0 0 0 0 0 0 0 0 0 0 0 0 0 0 0 0 0 0 0 0 0 0 0 62 446 432 424 505 421 282 304 346 447 355 345
0 0 0 0 0 0 0 0 0 0 0 0 0 0 0 0 0 0 0 0 0 0 0 0 0 0 0 0 0 0 0 0 0 80 543 412 510 546 439 402 240 327 443 523 463
0 0 0 0 0 0 0 0 0 0 0 0 0 0 0 0 0 0 0 0 0 0 0 0 0 0 0 0 0 0 0 0 0 209 469 620 485 332 478 438 291 307 390 575 518
0 0 1 1 0 0 0 0 0 0 0 0 0 0 0 0 0 0 0 0 0 0 0 0 0 0 0 0 0 0 0 0 0 216 464 655 23 229 507 466 402 336 414 433 515
0 0 0 1 1 0 0 0 0 0 0 0 0 0 0 0 0 0 0 0 0 0 0 0 0 0 0 0 0 0 0 0 0 5 37 550 37 304 469 489 486 455 500 489 486
1 1 1 1 1 0 0 0 0 0 0 0 0 0 0 0 0 0 0 0 0 0 0 0 0 0 0 0 0 0 0 0 0 0 4 22 12 290 526 506 507 505 596 598 529
1 1 1 1 1 0 0 0 0 0 0 0 0 0 0 0 0 0 0 0 0 0 0 0 0 0 0 0 0 0 0 0 0 0 0 0 2 8 535 496 509 546 546 622 582
1 1 0 1 0 0 0 0 0 0 0 0 0 0 0 0 0 0 0 0 0 0 0 0 0 0 0 0 0 0 0 0 0 0 0 66 47 109 472 522 538 520 460 504 535
1 1 1 1 1 0 0 0 0 0 0 0 0 0 0 0 0 0 0 0 0 0 0 0 0 0 0 0 0 0 0 0 0 0 26 58 0 0 159 707 753 649 489 388 342
1 1 0 1 0 0 0 0 0 0 0 0 0 0 0 0 0 0 0 0 0 0 0 0 0 0 0 0 0 0 0 0 0 0 3 24 0 5 2 146 505 674 641 539 209
2 1 1 0 0 0 0 0 0 0 0 0 0 0 0 0 0 0 0 0 0 0 0 0 0 0 0 0 0 0 0 0 0 0 0 0 18 0 19 96 61 209 627 562 220
2 1 0 0 0 0 0 0 0 0 0 0 0 0 0 0 0 0 0 0 0 0 0 0 0 0 0 0 0 0 0 0 0 0 0 0 0 0 82 92 41 89 125 379 471
0 0 0 0 0 0 0 0 0 0 0 0 0 0 0 0 0 0 0 0 0 0 0 0 0 0 0 0 0 0 0 0 0 0 0 0 0 0 49 64 64 199 126 135 566
0 0 0 0 0 0 0 0 0 0 0 0 0 0 0 0 0 0 0 0 0 0 0 0 0 0 0 0 0 0 0 0 0 0 0 0 0 0 28 30 155 519 80 108 320
0 0 0 0 0 0 0 0 0 0 0 0 0 0 0 0 0 0 0 0 0 0 0 0 0 0 0 0 0 0 0 0 0 0 0 0 0 8 10 226 465 720 788 402 205
0 0 0 0 0 0 0 0 0 0 0 0 0 0 0 0 0 0 0 0 0 0 0 0 0 0 0 0 0 0 0 0 0 0 0 0 0 0 80 357 524 787 907 731 510
0 0 0 0 0 0 0 0 0 0 0 0 0 0 0 0 0 0 0 0 0 0 0 0 0 0 0 0 0 0 0 0 0 0 0 0 0 0 169 348 371 560 801 768 438
0 0 0 0 0 0 0 0 0 0 0 0 0 0 0 0 0 0 0 0 0 0 0 0 0 0 0 0 0 0 0 0 0 0 0 0 19 0 199 382 322 293 436 523 733
0 0 0 0 0 0 0 0 0 0 0 0 0 0 0 0 0 0 0 0 0 0 0 0 0 0 0 0 0 0 0 0 0 0 12 10 8 2 76 197 157 76 116 263 663
0 0 0 0 0 0 0 0 0 0 0 0 0 0 0 0 0 0 0 0 0 0 0 0 0 0 0 0 0 0 0 0 0 1 4 0 0 1 51 63 7 8 45 54 157
0 0 0 0 0 0 0 0 0 0 0 0 0 0 0 0 0 0 0 0 0 0 0 0 0 0 0 0 0 0 0 0 0 0 0 0 0 3 0 0 12 85 101 79 139
0 0 0 0 0 0 0 0 0 0 0 0 0 0 0 0 0 0 0 0 0 0 0 0 0 0 0 0 0 0 0 0 0 0 0 0 0 0 5 122 122 115 96 96 97
0 0 0 0 0 0 0 0 0 0 0 0 0 0 0 0 0 0 0 0 0 0 0 0 0 0 0 0 0 0 0 0 0 0 0 2 47 27 127 83 59 89 71 79 108
CIN
-0 -0 -0 -0 -0 -0 -0 -0 -0 -0 -0 -0 -0 -0 -0 -0 -0 -0 -0 -0 -0 -0 -0 -0 -0 -0 -0 -0 -0 -0 -0 -0 -0 -0 -31 -61 -39 -72 -117 -87 -69 -62 -63 -91 -119
-0 -0 -0 -0 -0 -0 -0 -0 -0 -0 -0 -0 -0 -0 -0 -0 -0 -0 -0 -0 -0 -0 -0 -0 -0 -0 -0 -0 -0 -0 -0 -0 -0 -47 -58 -50 -44 -39 -59 -61 -54 -75 -127 -143 -148
-0 -0 -0 -0 -0 -0 -0 -0 -0 -0 -0 -0 -0 -0 -0 -0 -0 -0 -0 -0 -0 -0 -0 -0 -0 -0 -0 -0 -0 -0 -0 -0 -0 -63 -54 -47 -46 -64 -50 -64 -59 -53 -93 -130 -125
-0 -0 -0 -0 -0 -0 -0 -0 -0 -0 -0 -0 -0 -0 -0 -0 -0 -0 -0 -0 -0 -0 -0 -0 -0 -0 -0 -0 -0 -0 -0 -0 -37 -92 -60 -50 -62 -60 -60 -42 -74 -57 -88 -110 -109
-0 -0 -0 -0 -0 -0 -0 -0 -0 -0 -0 -0 -0 -0 -0 -0 -0 -0 -0 -0 -0 -0 -0 -0 -0 -0 -0 -0 -0 -0 -0 -0 -0 -106 -62 -67 -52 -48 -54 -88 -107 -114 -113 -78 -82
-0 -0 -0 -0 -0 -0 -0 -0 -0 -0 -0 -0 -0 -0 -0 -0 -0 -0 -0 -0 -0 -0 -0 -0 -0 -0 -0 -0 -0 -0 -0 -0 -0 -71 -68 -57 -62 -81 -75 -135 -141 -134 -111 -72 -70
-0 -0 -0 -0 -0 -0 -0 -0 -0 -0 -0 -0 -0 -0 -0 -0 -0 -0 -0 -0 -0 -0 -0 -0 -0 -0 -0 -0 -0 -0 -0 -0 -5 -77 -66 -61 -65 -53 -98 -151 -133 -123 -104 -78 -71
-0 -0 -0 -0 -0 -0 -0 -0 -0 -0 -0 -0 -0 -0 -0 -0 -0 -0 -0 -0 -0 -0 -0 -0 -0 -0 -0 -0 -0 -0 -0 -0 -0 -77 -79 -62 -24 -51 -124 -130 -112 -122 -109 -93 -82
-0 -0 -0 -0 -0 -0 -0 -0 -0 -0 -0 -0 -0 -0 -0 -0 -0 -0 -0 -0 -0 -0 -0 -0 -0 -0 -0 -0 -0 -0 -0 -0 -0 -48 -113 -80 -40 -70 -156 -121 -106 -117 -113 -100 -91
-0 -0 -0 -0 -0 -0 -0 -0 -0 -0 -0 -0 -0 -0 -0 -0 -0 -0 -0 -0 -0 -0 -0 -0 -0 -0 -0 -0 -0 -0 -0 -0 -0 -0 -34 -25 -71 -87 -146 -139 -96 -103 -115 -96 -87
-0 -0 -0 -0 -0 -0 -0 -0 -0 -0 -0 -0 -0 -0 -0 -0 -0 -0 -0 -0 -0 -0 -0 -0 -0 -0 -0 -0 -0 -0 -0 -0 -0 -0 -0 -0 -79 -61 -131 -174 -138 -143 -136 -104 -94
-0 -0 -0 -0 -0 -0 -0 -0 -0 -0 -0 -0 -0 -0 -0 -0 -0 -0 -0 -0 -0 -0 -0 -0 -0 -0 -0 -0 -0 -0 -0 -0 -0 -0 -0 -87 -67 -67 -137 -154 -145 -125 -147 -117 -86
-0 -0 -0 -0 -0 -0 -0 -0 -0 -0 -0 -0 -0 -0 -0 -0 -0 -0 -0 -0 -0 -0 -0 -0 -0 -0 -0 -0 -0 -0 -0 -0 -0 -0 -164 -124 -0 -0 -219 -223 -214 -188 -166 -162 -134
-0 -1 -0 -0 -0 -0 -0 -0 -0 -0 -0 -0 -0 -0 -0 -0 -0 -0 -0 -0 -0 -0 -0 -0 -0 -0 -0 -0 -0 -0 -0 -0 -0 -0 -51 -155 -0 -50 -82 -169 -203 -200 -193 -160 -158
-0 -0 -0 -0 -0 -0 -0 -0 -0 -0 -0 -0 -0 -0 -0 -0 -0 -0 -0 -0 -0 -0 -0 -0 -0 -0 -0 -0 -0 -0 -0 -0 -0 -0 -0 -0 -45 -0 -116 -58 -104 -155 -177 -217 -166
-0 -0 -0 -0 -0 -0 -0 -0 -0 -0 -0 -0 -0 -0 -0 -0 -0 -0 -0 -0 -0 -0 -0 -0 -0 -0 -0 -0 -0 -0 -0 -0 -0 -0 -0 -0 -0 -0 -76 -113 -148 -157 -164 -192 -177
-0 -0 -0 -0 -0 -0 -0 -0 -0 -0 -0 -0 -0 -0 -0 -0 -0 -0 -0 -0 -0 -0 -0 -0 -0 -0 -0 -0 -0 -0 -0 -0 -0 -0 -0 -0 -0 -0 -110 -179 -220 -170 -175 -204 -220
-0 -0 -0 -0 -0 -0 -0 -0 -0 -0 -0 -0 -0 -0 -0 -0 -0 -0 -0 -0 -0 -0 -0 -0 -0 -0 -0 -0 -0 -0 -0 -0 -0 -0 -0 -0 -0 -4 -179 -283 -253 -181 -227 -217 -232
-0 -0 -0 -0 -0 -0 -0 -0 -0 -0 -0 -0 -0 -0 -0 -0 -0 -0 -0 -0 -0 -0 -0 -0 -0 -0 -0 -0 -0 -0 -0 -0 -0 -0 -0 -0 -0 -114 -197 -170 -134 -99 -127 -172 -224
-0 -0 -0 -0 -0 -0 -0 -0 -0 -0 -0 -0 -0 -0 -0 -0 -0 -0 -0 -0 -0 -0 -0 -0 -0 -0 -0 -0 -0 -0 -0 -0 -0 -0 -0 -0 -0 -0 -64 -73 -107 -78 -97 -133 -216
-0 -0 -0 -0 -0 -0 -0 -0 -0 -0 -0 -0 -0 -0 -0 -0 -0 -0 -0 -0 -0 -0 -0 -0 -0 -0 -0 -0 -0 -0 -0 -0 -0 -0 -0 -0 -0 -0 -85 -114 -103 -135 -140 -131 -183
-0 -0 -0 -0 -0 -0 -0 -0 -0 -0 -0 -0 -0 -0 -0 -0 -0 -0 -0 -0 -0 -0 -0 -0 -0 -0 -0 -0 -0 -0 -0 -0 -0 -0 -0 -0 -29 -0 -117 -156 -180 -159 -178 -199 -198
-0 -0 -0 -0 -0 -0 -0 -0 -0 -0 -0 -0 -0 -0 -0 -0 -0 -0 -0 -0 -0 -0 -0 -0 -0 -0 -0 -0 -0 -0 -0 -0 -0 -0 -52 -27 -19 -100 -141 -132 -210 -275 -233 -207 -166
-0 -0 -0 -0 -0 -0 -0 -0 -0 -0 -0 -0 -0 -0 -0 -0 -0 -0 -0 -0 -0 -0 -0 -0 -0 -0 -0 -0 -0 -0 -0 -0 -0 -11 -11 -0 -0 -17 -76 -155 -141 -350 -352 -273 -230
-0 -0 -0 -0 -0 -0 -0 -0 -0 -0 -0 -0 -0 -0 -0 -0 -0 -0 -0 -0 -0 -0 -0 -0 -0 -0 -0 -0 -0 -0 -0 -0 -0 -0 -0 -0 -0 -42 -0 -0 -374 -397 -390 -322 -265
-0 -0 -0 -0 -0 -0 -0 -0 -0 -0 -0 -0 -0 -0 -0 -0 -0 -0 -0 -0 -0 -0 -0 -0 -0 -0 -0 -0 -0 -0 -0 -0 -0 -0 -0 -0 -0 -0 -325 -335 -330 -383 -373 -360 -389
-0 -0 -0 -0 -0 -0 -0 -0 -0 -0 -0 -0 -0 -0 -0 -0 -0 -0 -0 -0 -0 -0 -0 -0 -0 -0 -0 -0 -0 -0 -0 -0 -0 -0 -2 -8 -38 -155 -161 -263 -381 -403 -418 -405 -402
Wind_Speed
18 17 17 17 17 17 17 17 17 17 17 17 16 16 17 18 19 19 20 20 21 17 19 18 17 14 15 17 16 16 18 19 18 18 19 17 16 16 14 13 12 12 13 12 16
18 18 18 17 17 18 18 17 17 17 17 17 17 17 16 17 18 21 20 22 20 19 19 17 16 15 17 19 18 18 19 19 17 16 17 15 15 15 14 12 11 12 13 14 18
14 16 17 17 17 17 18 18 17 17 17 17 17 17 17 16 18 19 16 22 22 21 19 18 18 16 18 18 18 18 18 19 19 12 16 16 13 14 13 12 10 10 11 13 14
11 13 15 16 16 16 16 16 17 17 17 17 17 17 17 17 17 18 16 20 23 21 19 18 15 16 17 20 18 17 17 17 19 16 15 15 16 14 10 12 12 10 13 14 15
13 13 13 14 14 15 15 15 16 17 17 17 17 17 17 20 21 17 16 16 18 17 16 14 14 15 18 20 19 15 22 21 20 16 14 15 15 15 13 10 15 11 12 15 15
16 16 15 15 15 15 15 15 16 16 16 17 17 17 17 21 17 14 11 14 14 12 10 12 13 14 15 18 17 12 15 20 21 17 14 14 15 15 16 12 12 11 12 14 15
19 18 18 18 18 18 18 17 17 17 17 17 17 17 19 21 10 15 11 12 15 11 9 11 12 13 13 15 13 11 17 20 22 19 17 14 16 11 15 10 9 9 10 13 16
21 21 20 20 20 20 20 20 20 19 18 16 15 15 19 20 19 19 11 11 10 9 9 10 11 12 12 12 15 15 16 24 21 17 16 14 21 16 9 7 8 8 9 11 16
24 23 23 22 21 21 20 20 19 15 13 12 13 13 12 17 10 7 8 10 11 9 9 10 11 12 14 15 14 17 21 24 25 17 17 11 21 16 8 5 6 5 7 10 13
26 25 25 24 23 22 21 17 13 13 13 14 14 13 12 10 9 7 8 10 10 9 9 9 11 11 13 14 15 18 21 20 19 20 17 12 3 2 6 3 2 3 2 6 10
27 27 26 25 24 21 17 13 14 15 12 12 11 12 11 13 10 7 7 8 10 10 9 11 8 7 11 12 13 15 18 18 8 17 15 13 2 5 3 7 8 12 9 7 16
28 28 27 25 22 19 16 14 14 13 14 14 13 15 15 14 11 6 6 7 9 8 10 10 5 9 10 12 12 15 22 23 9 18 16 21 11 15 6 11 16 17 8 10 21
29 28 25 21 19 15 12 12 12 14 14 14 12 10 10 9 9 7 8 8 9 9 9 8 10 10 12 11 13 14 14 20 17 22 18 24 22 25 21 9 15 20 9 12 25
28 25 22 17 14 10 12 12 12 15 11 12 10 9 8 10 11 7 7 8 11 10 10 11 10 9 12 12 14 18 11 16 14 20 26 25 25 22 20 15 12 10 12 13 14
24 22 19 10 9 9 11 16 8 8 9 11 8 9 7 9 9 8 6 9 10 12 10 12 10 9 9 10 10 17 17 19 16 14 15 21 23 21 21 21 21 16 10 11 12
22 19 10 7 9 12 14 6 9 10 10 10 9 10 8 9 10 8 7 9 12 11 10 3 12 8 6 11 8 13 15 17 15 12 11 16 3 11 21 17 21 22 22 7 16
20 11 9 6 8 12 8 8 10 12 11 9 10 10 7 8 10 10 11 11 11 14 13 16 9 8 6 7 11 11 13 14 12 13 12 14 10 7 5 20 15 18 11 14 13
15 13 12 12 12 10 7 14 10 10 11 12 10 10 10 10 12 10 11 13 16 14 9 13 12 12 11 10 12 12 13 11 10 13 16 18 18 24 16 28 23 23 21 17 12
13 10 9 13 19 13 12 12 15 13 13 12 8 9 9 10 13 12 12 9 17 14 11 12 12 10 11 13 11 13 15 18 13 15 18 20 21 21 23 23 24 24 24 18 13
10 9 11 12 7 11 14 13 13 14 15 13 10 11 10 11 11 11 10 15 17 9 10 11 6 13 12 14 15 10 13 15 14 18 22 23 24 21 26 22 22 23 25 22 12
12 11 13 13 15 14 13 12 14 14 15 12 11 10 11 12 13 13 13 14 19 18 6 12 9 9 18 13 14 13 10 14 15 18 21 23 22 18 23 22 21 23 24 22 24
13 12 13 15 14 14 13 15 15 15 14 12 12 13 12 14 13 12 11 13 20 15 14 11 12 11 14 18 15 14 12 9 12 16 20 21 22 20 22 22 22 23 22 23 25
12 11 14 15 8 10 14 13 14 14 14 15 14 15 15 16 16 16 16 16 21 18 16 13 11 11 12 12 11 10 11 12 13 13 14 18 22 22 23 23 22 24 24 24 24
13 12 14 13 13 12 13 14 14 15 14 15 15 16 16 16 18 15 17 16 21 19 17 11 15 13 8 17 18 12 11 11 13 14 15 14 27 28 25 24 25 25 26 26 23
15 14 14 13 14 15 16 17 16 16 18 18 17 17 17 17 19 16 17 20 17 18 15 15 13 15 18 20 17 15 14 9 10 15 16 27 24 28 26 25 24 26 26 26 21
15 15 15 15 16 16 19 17 17 18 19 19 17 18 17 18 17 17 17 16 16 15 16 18 10 12 16 14 17 18 15 14 12 13 14 19 30 22 20 22 25 26 27 26 24
16 16 17 18 17 17 18 18 18 20 18 19 20 20 19 19 21 20 20 18 16 17 15 14 12 12 7 16 20 16 17 15 15 14 15 16 17 22 22 24 24 26 26 25 24
Wind_Direction
299 290 281 274 274 268 263 257 255 256 256 252 251 250 253 257 252 235 207 194 176 98 145 167 168 166 118 75 81 87 9 357 10 16 15 55 56 20 22 39 36 31 29 41 99
301 296 285 273 268 268 266 258 252 251 251 250 249 246 247 253 225 206 207 180 134 145 169 189 200 158 27 41 63 22 1 8 22 43 41 57 56 55 49 60 58 34 29 84 107
274 280 278 273 266 262 259 254 248 248 245 243 243 243 244 238 217 205 231 166 160 167 161 152 134 54 34 36 24 24 16 15 13 68 29 37 57 41 51 59 99 99 79 100 111
256 265 269 267 262 251 244 242 239 241 241 240 240 240 239 218 226 213 237 183 152 143 122 124 57 41 15 1 28 15 35 36 22 32 33 27 24 28 60 46 49 108 110 114 123
262 258 255 252 248 243 240 238 236 236 239 239 240 239 230 224 197 221 236 97 113 116 108 77 42 50 2 11 12 40 346 11 7 18 24 22 22 16 25 46 4 70 105 122 127
275 268 262 257 252 248 243 238 235 232 232 231 234 234 241 207 249 270 13 80 102 90 71 73 54 65 58 27 28 52 32 6 13 23 31 19 8 9 8 18 26 70 105 125 130
284 278 273 268 263 258 254 249 242 237 232 225 226 250 251 179 356 271 8 54 102 83 40 51 48 53 62 46 65 73 29 17 11 19 13 29 358 16 352 27 35 53 93 119 131
291 287 281 277 275 271 268 263 255 246 239 248 283 309 232 217 247 237 69 15 34 33 21 34 29 24 39 40 37 36 34 356 17 28 24 26 340 354 19 34 44 64 95 123 142
294 292 289 286 284 281 277 273 277 311 346 8 340 343 332 275 311 360 50 11 20 18 2 12 8 10 16 10 21 23 356 356 353 26 19 33 350 8 43 48 13 53 101 133 143
296 294 293 292 292 291 282 303 349 351 337 328 322 335 331 348 344 22 34 35 11 29 11 358 4 8 9 7 3 359 355 5 7 17 20 19 217 130 51 96 91 17 57 135 152
296 293 292 292 293 298 308 334 324 324 330 341 341 339 341 311 352 2 18 18 358 354 342 339 348 3 360 9 9 10 2 3 233 17 20 20 204 229 94 164 169 171 159 153 171
293 294 298 304 306 306 308 313 313 320 321 322 313 304 299 322 342 351 48 13 356 353 349 346 347 349 0 10 19 5 346 346 22 16 23 2 255 256 161 184 185 185 172 173 183
301 302 312 314 307 309 313 316 321 310 315 321 329 327 335 19 6 55 83 23 2 360 353 347 353 18 360 9 6 4 14 2 10 359 20 359 360 338 333 123 172 191 181 180 196
307 297 287 301 303 321 311 312 309 293 324 331 333 336 360 356 8 360 68 22 357 0 1 343 346 355 352 0 4 349 25 12 28 4 327 2 322 342 320 276 116 141 173 184 182
292 284 285 339 326 340 336 292 19 334 338 350 4 329 344 1 19 14 6 353 12 8 8 355 354 2 360 6 28 353 4 1 12 28 32 9 352 330 331 330 336 14 170 173 174
292 285 339 358 321 302 285 323 312 328 314 353 18 57 55 349 354 12 23 5 358 13 7 79 340 357 43 15 39 8 4 358 11 35 101 48 233 236 323 288 300 303 348 99 167
291 319 55 337 331 292 290 327 285 261 281 322 323 27 33 43 39 51 96 105 93 43 42 349 15 32 59 35 23 26 9 10 28 34 68 68 177 192 248 314 276 285 245 37 130
307 52 239 261 271 286 321 256 265 274 286 296 301 25 44 61 79 33 55 126 163 154 168 21 46 59 57 35 14 30 19 20 23 1 252 358 328 331 47 346 15 27 15 47 82
26 290 297 274 224 271 269 260 234 260 274 268 10 10 330 44 85 82 108 64 198 142 106 67 143 32 19 27 21 16 12 342 339 339 309 323 335 356 359 357 354 358 18 62 76
301 304 296 280 10 269 252 250 257 259 248 263 298 298 10 336 51 63 44 315 306 65 114 5 140 348 12 19 4 32 28 354 342 319 296 303 298 278 327 336 344 348 354 331 79
284 315 270 269 251 250 257 269 255 248 244 283 303 324 335 351 344 342 335 331 313 323 39 351 5 5 329 353 2 15 29 345 340 320 313 309 311 3 340 340 331 335 332 322 338
291 310 260 253 252 257 268 262 263 261 270 298 324 332 345 340 350 359 9 358 332 354 356 352 346 347 341 333 337 335 356 18 355 335 315 308 314 332 310 313 328 317 315 329 349
304 301 271 256 307 294 268 274 270 283 290 290 306 316 322 328 328 325 325 328 323 340 347 349 348 344 348 353 349 354 350 355 355 351 345 326 305 302 295 296 311 316 327 342 357
298 311 280 284 283 297 287 290 291 281 296 301 310 314 322 332 316 344 335 342 324 335 343 355 333 330 324 326 326 332 329 338 332 332 331 329 298 285 294 306 307 312 311 311 343
299 303 291 301 291 290 282 284 297 302 296 307 319 325 330 332 329 342 340 332 342 340 349 348 334 326 320 317 318 313 315 315 316 322 323 304 312 300 304 306 313 317 315 322 329
302 299 299 301 295 293 285 295 301 302 301 305 321 325 338 333 337 337 342 345 345 347 341 339 341 339 324 327 322 316 311 309 306 315 322 321 296 316 324 326 322 318 317 316 313
322 316 299 300 301 301 300 298 301 299 309 315 312 317 325 329 327 328 327 331 332 334 337 337 336 338 312 329 319 313 307 302 307 308 315 314 319 311 315 321 326 324 324 317 308